Location: Waco, TX
(31.5480°N, 97.1670°W)
Time: 07:24:59
(UTC-05:00)

ISS - Pass Details

Date: 26 September 2022
Orbit: 414 x 417 km, 51.6° (Epoch: 01 October)

Event Time Altitude Azimuth Distance (km) Brightness Sun altitude
Rises 17:13:20 0° 269° (W) 2,346 1.2 25.7°
Reaches altitude 10° 17:16:25 10° 300° (WNW) 1,488 -0.3 25.0°
Maximum altitude 17:17:56 13° 328° (NNW) 1,343 -0.9 24.7°
Drops below altitude 10° 17:19:29 10° 355° (N) 1,491 -1.0 24.4°
Sets 17:22:34 0° 26° (NNE) 2,358 -0.3 23.8°
